Location: Mount Kobau Star Party
(49.1167°N, 119.7333°W)
Time: 10:36:20
(UTC-07:00)

Envisat - Pass Details

Date: 24 April 2026
Orbit: 761 x 762 km, 98.4° (Epoch: 17 May)

Event Time Altitude Azimuth Distance (km) Brightness Sun altitude
Rises 03:35:15 0° 16° (NNE) 3,233 7.4 -18.8°
Reaches altitude 10° 03:37:34 10° 18° (NNE) 2,302 6.5 -18.6°
Maximum altitude 03:42:38 71° 103° (ESE) 807 3.1 -18.0°
Enters shadow 03:45:51 23° 183° (S) 1,591 4.2 -17.7°
